This is the latest recevied weather packets stored in our database for station/object N5VIS. If no packets are shown the sender has not sent any weather packets the latest 10 day(s).
| Time | Temp. | Humidity | Pressure | Rain* | Wind** | Luminosity | Snow |
|---|---|---|---|---|---|---|---|
| 1777737928 | 17.78° C | 81% | 1014.4 hPa | 0 mm | - | - | - |
| 1777737627 | 17.78° C | 79% | 1014.8 hPa | 0 mm | - | - | - |
| 1777737325 | 18.33° C | 79% | 1014.3 hPa | 0 mm | - | - | - |
| 1777737021 | 17.78° C | 82% | 1014.5 hPa | 0 mm | - | - | - |
| 1777736717 | 17.22° C | 81% | 1014.7 hPa | 0 mm | - | - | - |
| 1777736078 | 17.22° C | 83% | 1014.1 hPa | 0 mm | - | - | - |
| 1777735774 | 16.67° C | 85% | 1014.2 hPa | 0 mm | - | - | - |
| 1777735472 | 16.11° C | 86% | 1014.3 hPa | 0 mm | - | - | - |
| 1777735170 | 15.56° C | 88% | 1014.3 hPa | 0 mm | - | - | - |
| 1777734866 | 15.56° C | 89% | 1014.5 hPa | 0 mm | - | - | - |
| 1777734564 | 15.56° C | 87% | 1014.6 hPa | 0 mm | - | - | - |
| 1777734260 | 15.56° C | 89% | 1014.4 hPa | 0 mm | - | - | - |
| 1777733956 | 15.56° C | 89% | 1014 hPa | 0 mm | - | - | - |
| 1777733653 | 15.56° C | 90% | 1014 hPa | 0 mm | - | - | - |
| 1777733349 | 15° C | 91% | 1014 hPa | 0 mm | - | - | - |
| 1777733047 | 15° C | 92% | 1014.1 hPa | 0 mm | - | - | - |
| 1777732743 | 15° C | 92% | 1014 hPa | 0 mm | - | - | - |
| 1777732440 | 14.44° C | 92% | 1014 hPa | 0 mm | - | - | - |
| 1777732137 | 14.44° C | 93% | 1014.1 hPa | 0 mm | - | - | - |
| 1777731834 | 15° C | 95% | 1013.8 hPa | 0 mm | - | - | - |
| 1777731530 | 13.89° C | 96% | 1013.7 hPa | 0 mm | - | - | - |
| 1777731229 | 13.89° C | 96% | 1013.8 hPa | 0 mm | - | - | - |
| 1777730926 | 13.89° C | 97% | 1013.7 hPa | 0 mm | - | - | - |
| 1777730624 | 13.33° C | 98% | 1013.8 hPa | 0 mm | - | - | - |
| 1777730320 | 13.33° C | 98% | 1013.6 hPa | 0 mm | - | - | - |
* Rain latest hour (hover to see other rain measurements)
** Current wind speed in m/s (hover to see current wind gust speed)